Home > Weather > Yekaterinburg > Past weeks

Flag for Russia Weather for the Past 2 Weeks in Yekaterinburg, Russia

Now
57 °F

Passing clouds.


Feels Like: 55 °F
Forecast: 34 / 63 °F
Wind: 8 mph from Southeast

Location: Ekaterinburg

Current Time: May 3, 2016 at 4:47:22 PM

Latest Report: May 3, 2016 at 4:00 PM


Visibility: N/A

Pressure: 30.27 "Hg

Humidity: 25%

Dew Point: 21 °F

Location of YekaterinburgLocation

Historic Weather in Yekaterinburg — Graph

°F

Yekaterinburg Temperature Yesterday

Maximum temperature yesterday: 50 °F (at 3:30 PM)
Minimum temperature yesterday: 30 °F (at 10:30 PM)
Average temperature yesterday: 41 °F

High & Low Weather Summary for the Past Weeks

 TemperatureHumidityPressure
High70 °F (Apr 18, 3:00 PM)100% (Apr 19, 6:00 AM)30.51 "Hg (Apr 19, 6:00 AM)
Low25 °F (Apr 30, 5:30 AM)16% (Apr 30, 5:00 PM)29.56 "Hg (Apr 20, 6:00 PM)
Average46 °F72%30.07 "Hg
* Reported Apr 18 3:00 PM — May 3 3:30 PM, Yekaterinburg, Weather by CustomWeather, © 2016

Note: Actual official high and low records may vary slightly from our data, if they occured in-between our weather recording intervals... More about our weather records

Advertising

Yekaterinburg Weather History for the Previous 24 Hours

Scroll right to see more
 ConditionsComfort  
Time TempWeatherWind HumidityBarometerVisibility
3:30 PM
Tue, May 3
55 °FPassing clouds.8 mph26%30.27 "HgN/A
3:00 PM57 °FPassing clouds.10 mph25%30.27 "HgN/A
2:30 PM55 °FSunny.10 mph26%30.27 "Hg10 mi
2:00 PM55 °FPassing clouds.8 mph26%30.30 "HgN/A
1:30 PM54 °FPassing clouds.13 mph28%30.30 "HgN/A
1:00 PM55 °FPassing clouds.10 mph28%30.30 "HgN/A
12:30 PM54 °FPassing clouds.13 mph30%30.30 "HgN/A
12:00 PM50 °FPassing clouds.10 mph35%30.33 "HgN/A
11:30 AM50 °FPassing clouds.13 mph35%30.33 "HgN/A
11:00 AM50 °FPassing clouds.10 mph35%30.33 "HgN/A
10:30 AM50 °FPassing clouds.13 mph35%30.33 "HgN/A
10:00 AM48 °FSunny.13 mph37%30.33 "Hg10 mi
9:30 AM48 °FPassing clouds.6 mph40%30.33 "HgN/A
8:30 AM43 °FPassing clouds.10 mph49%30.36 "HgN/A
8:00 AM41 °FPassing clouds.6 mph53%30.36 "HgN/A
7:30 AM37 °FPassing clouds.3 mph65%30.36 "HgN/A
6:30 AM34 °FSunny.No wind70%30.36 "Hg10 mi
6:00 AM30 °FSunny.No wind75%30.36 "Hg10 mi
5:30 AM28 °FSunny.3 mph74%30.36 "Hg10 mi
5:00 AM28 °FClear.1 mph74%30.36 "Hg10 mi
4:30 AM30 °FClear.3 mph69%30.36 "Hg10 mi
4:00 AM27 °FClear.1 mph69%30.36 "Hg10 mi
3:30 AM25 °FClear.1 mph80%30.36 "Hg10 mi
3:00 AM27 °FClear.1 mph74%30.36 "Hg10 mi
2:00 AM30 °FClear.1 mph59%30.36 "Hg10 mi
1:30 AM32 °FClear.No wind60%30.36 "Hg10 mi
1:00 AM32 °FClear.No wind60%30.36 "Hg10 mi
12:30 AM34 °FClear.No wind56%30.33 "Hg10 mi
12:00 AM32 °FClear.1 mph60%30.33 "Hg10 mi
11:30 PM
Mon, May 2
30 °FClear.1 mph64%30.33 "Hg10 mi
11:00 PM32 °FPassing clouds.3 mph64%30.33 "HgN/A
10:30 PM30 °FClear.3 mph64%30.33 "Hg10 mi
10:00 PM32 °FClear.6 mph60%30.33 "Hg10 mi
9:30 PM37 °FClear.8 mph48%30.33 "Hg10 mi
9:00 PM39 °FClear.8 mph45%30.33 "Hg10 mi
8:30 PM41 °FSunny.8 mph39%30.33 "Hg10 mi
8:00 PM46 °FSunny.6 mph29%30.33 "Hg10 mi
7:30 PM48 °FSunny.8 mph27%30.33 "Hg10 mi
7:00 PM48 °FPassing clouds.8 mph27%30.33 "HgN/A
6:30 PM50 °FPassing clouds.10 mph25%30.33 "HgN/A
6:00 PM50 °FSunny.13 mph28%30.33 "Hg10 mi
5:30 PM50 °FSunny.10 mph25%30.33 "Hg10 mi
5:00 PM50 °FPassing clouds.8 mph28%30.33 "HgN/A
4:30 PM50 °FSunny.10 mph28%30.33 "Hg10 mi
4:00 PM50 °FPassing clouds.8 mph30%30.33 "HgN/A
Weather by CustomWeather, © 2016

See weather overviewHow to use our weather pages